FENGYUN 1C DEB, 32326

Orbit data source: Space-Track

FENGYUN 1C DEB, 32326 is space debris in SSO originally from a launch on Mon, 10 May 1999 UTC launched from the Taiyaun Space Center, China (TSC). Fengyun 1C debris stems from the Chinese weather satellite Fengyun-1C, which was intentionally destroyed by a Chinese anti-satellite missile in 2007. This event dramatically increased the amount of space debris, with thousands of trackable fragments posing hazards to satellites and human spaceflight. The Fengyun 1C debris cloud has become a focal point in discussions about space sustainability and the need for international regulations to prevent the creation of new debris.

Loading next visibility...
Identifier
32326, 1999-025CXT
Orbit
SSO
Country
Flag of CNCN / PRC
Related business
Manufacturer
Unknown
Mission
Spacecraft
Bus & Motor
Unknown
Mass
Unknown
Launch date (UTC)
1999-05-10 (27 years ago)
Launch vehicle
Unknown
Launch site
Taiyaun Space Center, China (TSC)
Object type
Payload
Rocket body
Debris
Shape & HBR
Unknown shape, 0.1 m
Radar Cross Section
Small (<0.1 m²)

Expand to show TLE details & history
Last TLE update: 3 days ago

TLE from 3 days ago
0 FENGYUN 1C DEB
1 32326U 99025CXT 26173.01853280  .00000374  00000-0  28001-3 0  9995
2 32326  98.4933  85.3714 0385743 348.7193  10.5490 13.69618090658008
Epoch: 2026-06-22T00:26Z
TLE epoch observation values (Epoch: 2026-06-22T00:26:41.233Z)
Latitude
-0.00002°
Longitude
168.48913°
Altitude
724.306 km
Speed
7.634 km/s
True Right ascension
05h 41m 29s
True Declination
0° 00' 00"
Sunlit
Object was in daylight at epoch
Visualization orbit readout
Latitude
Unknown
Longitude
Unknown
Altitude
Unknown
Speed
Unknown
Apparent Right ascension
Unknown
Apparent Declination
Unknown
Sunlit
N/A
Visualization observer readout
Local Sidereal Time
22:27:56
Azimuth
Unknown
Elevation
Unknown
Doppler factor
Unknown
Orbital elements
Apogee altitude
1,282.688 km
Perigee altitude
713.617 km
Semi-major axis
7,376.29 km
Eccentricity
0.03857
Inclination
98.4933°
RAAN
85.3714°
Arg. of periapsis
348.7193°
True anomaly
11.3984°
Mean anomaly
10.549°
Eccentric anomaly
10.96956°
Mean motion
3.42599 °/min
Orbital period
105.08 mins
BSTAR
0.00028001
Loading maneuver chart data...
Computing Atmospheric mass density...

Documentation

Showing up to 5 results
|